This demonstration page uses our WeatherBlox Daily Observations layout. Learn more.

Left ArrowRight Arrow

40.92945, -100.16068

Hourly Observations for June 9, 2016

Temp ( °F °C ) Dew Point ( °F °C ) Humidity (%) Winds ( mph kmh ) Pressure ( in mb ) Visibility ( mi km ) Precip ( " mm )
12:15 am 00:15 Clear 76 24.7 56 13.5 50 50 S 17 28 29.62 1003 10 16 N/A
12:35 am 00:35 Clear 76 24.6 56 13.2 49 49 S 16 26 29.62 1003 10 16 N/A
12:55 am 00:55 Clear 76 24.2 56 13.2 50 50 SSW 16 26 29.65 1004 10 16 N/A
1:15 am 01:15 Clear 76 24.6 55 12.8 48 48 SSW 18 30 29.62 1003 10 16 N/A
1:35 am 01:35 Clear 77 25 55 12.7 46 46 SSW 20 31 29.65 1004 10 16 N/A
1:55 am 01:55 Clear 77 24.8 55 12.9 48 48 WNW 6 9 29.65 1004 10 16 N/A
2:15 am 02:15 Clear 75 23.7 56 13.3 52 52 S 8 13 29.68 1005 10 16 N/A
2:35 am 02:35 Clear 75 24.1 56 13.1 50 50 SSW 3 6 29.68 1005 10 16 N/A
2:55 am 02:55 Clear 73 22.6 56 13.4 56 56 S 9 15 29.65 1004 10 16 N/A
3:15 am 03:15 Clear 74 23.1 56 13.2 54 54 S 8 13 29.65 1004 10 16 N/A
3:35 am 03:35 Clear 73 22.5 56 13.5 57 57 S 9 15 29.65 1004 10 16 N/A
3:55 am 03:55 Clear 71 21.6 57 13.7 61 61 S 7 11 29.65 1004 10 16 N/A
4:15 am 04:15 Clear 69 20.7 57 14 66 66 S 7 11 29.68 1005 10 16 N/A
4:35 am 04:35 Clear 69 20.3 57 13.8 66 66 S 8 13 29.68 1005 10 16 N/A
4:55 am 04:55 Clear 69 20.5 57 13.7 65 65 S 9 15 29.68 1005 10 16 N/A
5:15 am 05:15 Clear 68 20.1 57 13.7 67 67 S 8 13 29.68 1005 10 16 N/A
5:35 am 05:35 Clear 67 19.6 57 13.7 69 69 S 6 9 29.68 1005 10 16 N/A
5:55 am 05:55 Clear 66 19.1 57 13.7 71 71 SSW 6 9 29.68 1005 10 16 N/A
6:15 am 06:15 Sunny 66 19.1 57 13.8 72 72 SSW 6 9 29.71 1006 10 16 N/A
6:35 am 06:35 Sunny 65 18.6 57 14 75 75 SSW 9 15 29.71 1006 10 16 N/A
6:55 am 06:55 Sunny 67 19.5 57 14.1 71 71 WSW 7 11 29.74 1007 10 16 N/A
7:15 am 07:15 Sunny 67 19.2 57 14 72 72 WSW 3 6 29.74 1007 10 16 N/A
7:35 am 07:35 Sunny 67 19.2 58 14.5 74 74 Calm 29.74 1007 10 16 N/A
7:55 am 07:55 Sunny 68 19.9 60 15.3 75 75 NNW 3 6 29.71 1006 10 16 N/A
8:15 am 08:15 Sunny 70 21 60 15.6 71 71 W 5 7 29.71 1006 10 16 N/A
8:35 am 08:35 Sunny 72 22.3 60 15.8 67 67 WNW 8 13 29.68 1005 10 16 N/A
8:55 am 08:55 Sunny 74 23.4 61 16.3 64 64 W 8 13 29.68 1005 10 16 N/A
9:15 am 09:15 Sunny 77 24.8 62 16.5 60 60 WNW 10 17 29.65 1004 10 16 N/A
9:35 am 09:35 Sunny 79 26.3 62 16.8 56 56 W 7 11 29.65 1004 10 16 N/A
9:55 am 09:55 Sunny 82 27.5 61 16.3 50 50 WNW 9 15 29.65 1004 10 16 N/A
10:15 am 10:15 Sunny 83 28.6 60 15.3 44 44 WNW 8 13 29.62 1003 10 16 N/A
10:35 am 10:35 Sunny 85 29.6 55 12.9 36 36 WSW 9 15 29.62 1003 10 16 N/A
10:55 am 10:55 Sunny 87 30.5 53 11.6 31 31 SW 13 20 29.62 1003 10 16 N/A
11:15 am 11:15 Sunny 88 31 54 12.1 31 31 WSW 7 11 29.62 1003 10 16 N/A
11:35 am 11:35 Sunny 89 31.5 55 13 32 32 WSW 7 11 29.62 1003 10 16 N/A
11:55 am 11:55 Sunny 89 31.4 55 12.6 32 32 SW 7 11 29.62 1003 10 16 N/A
12:15 pm 12:15 Sunny 89 31.7 56 13.6 33 33 S 10 17 29.62 1003 10 16 N/A
12:35 pm 12:35 Sunny 90 32 55 13 31 31 SSW 8 13 29.62 1003 10 16 N/A
12:55 pm 12:55 Sunny 90 32.4 55 12.9 30 30 S 8 13 29.59 1002 10 16 N/A
1:15 pm 13:15 Sunny 91 32.7 56 13.2 31 31 SSW 9 15 29.59 1002 10 16 N/A
1:35 pm 13:35 Sunny 91 32.8 60 15.3 35 35 S 7 11 29.59 1002 10 16 N/A
1:55 pm 13:55 Sunny 91 32.8 58 14.4 33 33 S 8 13 29.59 1002 10 16 N/A
2:15 pm 14:15 Sunny 92 33.3 60 15.3 34 34 SSW 10 17 29.59 1002 10 16 N/A
2:35 pm 14:35 Sunny 92 33.2 57 13.9 31 31 SSW 10 17 29.59 1002 10 16 N/A
2:55 pm 14:55 Sunny 92 33.5 56 13.4 30 30 SSW 10 17 29.56 1001 10 16 N/A
3:15 pm 15:15 Sunny 92 33.6 59 15.2 33 33 S 12 19 29.56 1001 10 16 N/A
3:35 pm 15:35 Sunny 93 34.1 58 14.4 30 30 S 13 20 29.56 1001 10 16 N/A
3:55 pm 15:55 Sunny 94 34.2 58 14.4 30 30 SSW 10 17 29.56 1001 10 16 N/A
4:15 pm 16:15 Sunny 93 34.1 58 14.5 31 31 SW 8 13 29.56 1001 10 16 N/A
4:35 pm 16:35 Sunny 94 34.3 58 14.2 30 30 S 15 24 29.56 1001 10 16 N/A
4:55 pm 16:55 Sunny 94 34.2 56 13.4 28 28 SSE 12 19 29.56 1001 10 16 N/A
5:15 pm 17:15 Sunny 93 34.1 56 13.3 28 28 S 13 20 29.56 1001 10 16 N/A
5:35 pm 17:35 Sunny 94 34.3 55 13 27 27 SSW 8 13 29.56 1001 10 16 N/A
5:55 pm 17:55 Sunny 94 34.2 55 12.8 27 27 SSW 8 13 29.56 1001 10 16 N/A
6:15 pm 18:15 Sunny 93 34.1 55 12.7 27 27 SSW 9 15 29.53 1000 10 16 N/A
6:35 pm 18:35 Sunny 91 32.9 61 15.9 36 36 S 17 28 29.53 1000 10 16 N/A
6:55 pm 18:55 Sunny 90 32 62 16.5 39 39 S 16 26 29.53 1000 10 16 N/A
7:15 pm 19:15 Sunny 89 31.5 62 16.4 40 40 S 16 26 29.53 1000 10 16 N/A
7:35 pm 19:35 Sunny 88 31 62 16.7 42 42 S 14 22 29.56 1001 10 16 N/A
7:55 pm 19:55 Sunny 87 30.6 62 16.5 43 43 S 13 20 29.59 1002 10 16 N/A
8:15 pm 20:15 Sunny 86 29.8 62 16.6 45 45 SSE 12 19 29.59 1002 10 16 N/A
8:35 pm 20:35 Sunny 85 29.2 62 16.5 46 46 S 13 20 29.59 1002 10 16 N/A
8:55 pm 20:55 Partly Cloudy 83 28.5 62 16.7 49 49 S 15 24 29.59 1002 10 16 N/A
9:15 pm 21:15 Partly Cloudy 82 28 63 17.1 52 52 S 14 22 29.62 1003 10 16 N/A
9:35 pm 21:35 Clear 82 27.6 64 17.5 54 54 S 13 20 29.62 1003 10 16 N/A
9:55 pm 21:55 Clear 81 27 63 17.2 55 55 S 13 20 29.62 1003 10 16 N/A
10:15 pm 22:15 Clear 80 26.7 62 16.7 54 54 S 12 19 29.62 1003 10 16 N/A
10:35 pm 22:35 Clear 79 26.2 61 16.2 54 54 S 14 22 29.65 1004 10 16 N/A
10:55 pm 22:55 Clear 79 26 61 16.2 55 55 S 12 19 29.65 1004 10 16 N/A
11:15 pm 23:15 Clear 78 25.5 62 16.5 58 58 S 12 19 29.65 1004 10 16 N/A
11:35 pm 23:35 Clear 77 25.1 62 16.5 59 59 S 12 19 29.65 1004 10 16 N/A
11:55 pm 23:55 Clear 77 25 62 16.5 59 59 S 12 19 29.65 1004 10 16 N/A

Powered by AerisWeather